• Processing (Info)

  • MPEC 2019-M69 : 2019 ML

    The following Minor Planet Electronic Circular may be linked-to from your own Web pages, but must not otherwise be redistributed electronically.

    A form allowing access to any MPEC is at the bottom of this page.


    Read MPEC 2019-M68 Read MPEC 2019-M70


    M.P.E.C. 2019-M69                                Issued 2019 June 24, 17:27 UT  
    
         The Minor Planet Electronic Circulars contain information on unusual
             minor planets and routine data on comets.  They are published
        on behalf of Division F of the International Astronomical Union by the
              Minor Planet Center, Smithsonian Astrophysical Observatory,
                              Cambridge, MA 02138, U.S.A.
    
                 Prepared using the Tamkin Foundation Computer Network
    
                                  MPC@CFA.HARVARD.EDU
                URL https://www.minorplanetcenter.net/    ISSN 1523-6714
    
                                     2019 ML                                 
    
    Observations:
         K19M00L  C2019 06 21.32497215 25 00.810-22 56 50.69         20.8 GVEM069F51
         K19M00L  C2019 06 21.33617915 24 59.885-22 58 24.58         20.0 GVEM069F51
         K19M00L  C2019 06 21.34736115 24 58.967-22 59 57.60         20.5 GVEM069F51
         K19M00L* C2019 06 22.30349 15 24 25.874-25 19 22.93         20.4 wUEM069F51
         K19M00L  C2019 06 22.31405 15 24 24.987-25 20 59.65         20.3 wUEM069F51
         K19M00L  C2019 06 22.32461 15 24 24.083-25 22 36.57         20.6 wUEM069F51
         K19M00L  C2019 06 23.16522 15 23 54.93 -27 36 16.3          20.4 GVEM069I52
         K19M00L  C2019 06 23.16564 15 23 54.91 -27 36 20.5          20.6 GVEM069I52
         K19M00L  C2019 06 23.16606 15 23 54.90 -27 36 24.2          20.2 GVEM069I52
         K19M00L  C2019 06 24.21522 15 23 14.44 -30 38 02.0          21.0 GVEM069I52
         K19M00L  C2019 06 24.21764 15 23 14.24 -30 38 28.4          21.1 GVEM069I52
         K19M00L  C2019 06 24.21861 15 23 14.17 -30 38 39.0          20.1 GVEM069I52
         K19M00L  C2019 06 24.21958 15 23 14.08 -30 38 49.0          19.8 GVEM069I52
    
    Observer details:
    F51 Pan-STARRS 1, Haleakala.  Observers J. Bulger, K. Chambers, T. Lowe,
        E. Magnier, A. Schultz, M. Willman.  Measurers S. Chastel, M. Huber,
        Y. Ramanjooloo, R. Wainscoat, R. Weryk, K. Chambers, T. de Boer, L. Denneau,
        J. Fairlamb, H. Flewelling, C.-C. Lin, E. Magnier.  
        1.8-m Ritchey-Chretien + CCD.
    I52 Steward Observatory, Mt. Lemmon Station.  Observers T. A. Pruyne,
        R. A. Kowalski.  Measurers B. M. Africano, E. J. Christensen, G. A. Farneth,
        D. C. Fuls, A. R. Gibbs, A. D. Grauer, H. Groeller, R. A. Kowalski,
        S. M. Larson, G. J. Leonard, T. A. Pruyne, D. Rankin, R. L. Seaman,
        F. C. Shelly.  1.0-m reflector + CCD.
    
    Orbital elements:
    2019 ML                                                  Earth MOID = 0.0507 AU
    Epoch 2019 Apr. 27.0 TT = JDT 2458600.5                 MPC
    M 333.33380              (2000.0)            P               Q
    n   0.31979176     Peri.  213.43880     +0.46895524     +0.87013340
    a   2.1178305      Node    84.94270     -0.77334919     +0.48738194
    e   0.5133036      Incl.    8.74753     -0.42662866     +0.07298429
    P   3.08           H   24.5           G   0.15           U   7
    Residuals in seconds of arc
    190621 F51  0.0   0.1+    190622 F51  0.0   0.1-    190624 I52  0.1-  0.2-
    190621 F51  0.0   0.2-    190623 I52  0.0   0.1+    190624 I52  0.1+  0.3-
    190621 F51  0.0   0.1+    190623 I52  0.2+  0.0     190624 I52  0.0   0.3+
    190622 F51  0.1-  0.1-    190623 I52  0.5+  0.5+
    190622 F51  0.0   0.1+    190624 I52  0.2-  0.0
    
    Ephemeris:
    2019 ML                  a,e,i = 2.12, 0.51, 9                   q = 1.0307
    Date    TT    R. A. (2000) Decl.     Delta      r    Elong.  Phase     V
    2019 05 25    15 42 38.8 +00 34 12   0.2201  1.2195   157.9    18.2    22.6
    ...
    2019 06 09    15 33 02.9 -05 45 54   0.1372  1.1378   151.8    25.0    21.6
    ...
    2019 06 17    15 27 43.2 -14 40 00   0.09983 1.1016   147.8    29.5    21.0
    ...
    2019 06 23    15 23 59.5 -27 07 20   0.07613 1.0786   143.7    33.9    20.5
    2019 06 24    15 23 23.3 -29 57 19   0.07274 1.0752   142.7    34.9    20.4
    2019 06 25    15 22 47.4 -33 03 19   0.06957 1.0719   141.6    36.1    20.3
    ...
    2019 07 01    15 19 05.7 -57 37 08   0.05660 1.0544   130.6    47.0    20.2
    ...
    2019 07 09    03 22 05.0 -84 00 51   0.06122 1.0384   109.1    67.7    20.9
    ...
    2019 07 24    03 12 41.9 -48 44 57   0.1111  1.0322    95.3    78.5    22.5
    
    A. U. Tomatic                (C) Copyright 2019 MPC           M.P.E.C. 2019-M69
    


    Read MPEC 2019-M68 Read MPEC 2019-M70


    MPEC number:

    Enter an MPEC number in one of the following forms:

    • 1997-B01 (the full form)
    • J97B01 (the packed version of the full form)
    • B01 (the abbreviated form)